STARLINK-5984, 56329

Orbit data source: Space-Track

STARLINK-5984, 56329 is a payload satellite owned by SpaceX/Seattle (US) in SSO that was launched on Thu, 27 Apr 2023 UTC via an FALCON 9 launch vehicle from the Air Force Western Test Range (AFWTR). Payload-class satellites include a variety of spacecraft equipped with specific instruments for various scientific and technological missions. These include communications satellites like Starlink; space stations such as the ISS; scientific satellites like the Hubble; Earth observation satellites from companies like Planet Labs, Umbra, and HawkEye 360; GPS; miniature CubeSats for education and research; and military/defense satellites.

Loading next visibility...
Identifier
56329, 2023-058N
Orbit
SSO
Country
Flag of USUS
Related business
Manufacturer
SpaceX/Seattle
Mission
Operational Commercial Communications
Bus & Motor
STARLINK, Unknown motor
Mass
300 kg wet, ~260 kg dry
Launch date (UTC)
2023-04-27 (3 years ago)
Launch vehicle
FALCON 9
Launch site
Air Force Western Test Range (AFWTR)
Object type
Payload
Rocket body
Debris
Shape & HBR
Box + 1 Pan, 10.1 m
Radar Cross Section
11.087 m², Large (>1 m²)

Expand to show TLE details & history
Last TLE update: 3 days ago

TLE from 3 days ago
0 STARLINK-5984
1 56329U 23058N   26170.93778196 -.00000043  00000-0  97074-6 0  9990
2 56329  97.3426 170.9540 0002042  86.2903 273.8558 15.05654011173580
Epoch: 2026-06-19T22:30Z
TLE epoch observation values (Epoch: 2026-06-19T22:30:24.361Z)
Latitude
-0.00001°
Longitude
-74.80709°
Altitude
552.477 km
Speed
7.586 km/s
True Right ascension
11h 23m 48s
True Declination
0° 00' 00"
Sunlit
Object was in daylight at epoch
Visualization orbit readout
Latitude
Unknown
Longitude
Unknown
Altitude
Unknown
Speed
Unknown
Apparent Right ascension
Unknown
Apparent Declination
Unknown
Sunlit
N/A
Visualization observer readout
Local Sidereal Time
21:33:55
Azimuth
Unknown
Elevation
Unknown
Doppler factor
Unknown
Orbital elements
Apogee altitude
547.895 km
Perigee altitude
545.067 km
Semi-major axis
6,924.618 km
Eccentricity
0.0002
Inclination
97.3426°
RAAN
170.954°
Arg. of periapsis
86.2903°
True anomaly
273.83245°
Mean anomaly
273.8558°
Eccentric anomaly
273.84413°
Mean motion
3.7666 °/min
Orbital period
95.58 mins
BSTAR
9.7074e-7
Loading maneuver chart data...
Computing Atmospheric mass density...
Loading historical data...
Loading historical data...
Loading historical data...
Loading historical data...
Loading historical data...
Loading historical data...
Loading historical data...

Documentation

Showing up to 5 results
|